SL-16 DEB, 39301

Orbit data source: Space-Track

SL-16 DEB, 39301 is space debris in LEO originally from a launch on Fri, 25 Dec 1992 UTC launched from the Tyuratam Missile And Space Complex (TTMTR). Debris objects in space refer to the collection of defunct objects orbiting the Earth. Examples of debris include non-operational satellites, rocket bodies, and fragments generated from explosions, collisions, or faulty payload assembly.

Loading next visibility...
Identifier
39301, 1992-093JS
Orbit
LEO
Country
Flag of CISCIS
Related business
Manufacturer
Unknown
Mission
Spacecraft
Bus & Motor
Unknown
Mass
Unknown
Launch date (UTC)
1992-12-25 (33 years ago)
Launch vehicle
Unknown
Launch site
Tyuratam Missile And Space Complex (TTMTR)
Object type
Payload
Rocket body
Debris
Shape & HBR
Unknown shape, 0.1 m
Radar Cross Section
Small (<0.1 m²)

Expand to show TLE details & history
Last TLE update: 1 week ago

TLE from 1 week ago
0 SL-16 DEB
1 39301U 92093JS  26027.90073659  .00000132  00000-0  98667-4 0  9991
2 39301  70.8777 118.7249 0032364 140.3698 219.9797 14.11626404641739
Epoch: 2026-01-27T21:37Z
TLE epoch observation values (Epoch: 2026-01-27T21:37:03.641Z)
Latitude
0.00004°
Longitude
27.28424°
Altitude
874.169 km
Speed
7.406 km/s
True Right ascension
07h 54m 53s
True Declination
0° 00' 00"
Sunlit
Object was in full shadow at epoch
Visualization orbit readout
Latitude
Unknown
Longitude
Unknown
Altitude
Unknown
Speed
Unknown
Apparent Right ascension
Unknown
Apparent Declination
Unknown
Sunlit
N/A
Visualization observer readout
Local Sidereal Time
12:05:29
Azimuth
Unknown
Elevation
Unknown
Doppler factor
Unknown
Orbital elements
Apogee altitude
875.151 km
Perigee altitude
828.353 km
Semi-major axis
7,229.889 km
Eccentricity
0.00324
Inclination
70.8777°
RAAN
118.7249°
Arg. of periapsis
140.3698°
True anomaly
219.74215°
Mean anomaly
219.9797°
Eccentric anomaly
219.86085°
Mean motion
3.53058 °/min
Orbital period
101.97 mins
BSTAR
0.000098667
Loading maneuver chart data...
Computing Atmospheric mass density...
Loading historical data...
Loading historical data...
Loading historical data...
Loading historical data...
Loading historical data...
Loading historical data...
Loading historical data...

Documentation

Showing up to 5 results
|